CW0949 Weather Reports


time (UTC)temp
C
wind
direction
speed
KPH
gust
KPH
rain 1hr
cm
rain 24hr
cm
rain mn
cm
humidity
%
barometer
mb
20260505224203 10 24 0.0 0.0 0.00 0.15 0.00 93 1009.5
20260505223708 10 24 0.0 0.0 0.00 0.15 0.00 93 1009.5
20260505223202 10 26 0.0 0.0 0.03 0.18 0.00 93 1009.5
20260505222206 10 24 0.0 4.8 0.03 0.23 0.00 92 1009.5
20260505221702 10 24 0.0 4.8 0.03 0.23 0.00 92 1009.6
20260505220853 10 30 0.0 0.0 0.03 0.28 0.00 92 1009.5
20260505215206 10 22 0.0 6.4 0.03 0.41 0.33 93 1009.7
20260505214202 11 34 0.0 6.4 0.03 0.51 0.33 95 1009.7
20260505213706 11 36 0.0 0.0 0.03 0.61 0.33 96 1009.7
20260505213202 11 40 0.0 0.0 0.00 0.64 0.30 97 1009.7
20260505212701 11 40 0.0 0.0 0.00 0.71 0.30 97 1009.8
20260505212206 11 40 0.0 0.0 0.00 0.71 0.30 97 1009.7
20260505211702 11 40 0.0 0.0 0.00 0.74 0.30 97 1009.7
20260505211202 11 40 0.0 0.0 0.00 0.76 0.30 97 1009.8
20260505210708 11 40 0.0 0.0 0.00 0.76 0.30 97 1009.7
20260505210202 11 40 0.0 0.0 0.00 0.76 0.30 96 1009.8
20260505205211 11 40 0.0 0.0 0.00 0.76 0.30 96 1009.9
20260505204702 11 40 0.0 0.0 0.00 0.79 0.30 96 1009.8
20260505204202 11 40 0.0 0.0 0.00 0.79 0.30 96 1009.8
20260505203202 11 40 0.0 0.0 0.00 0.79 0.30 95 1009.8
20260505202702 11 40 0.0 0.0 0.00 0.79 0.30 95 1009.8
20260505202206 11 40 0.0 0.0 0.00 0.79 0.30 96 1009.8
20260505201702 11 40 0.0 0.0 0.00 0.79 0.30 96 1009.7
20260505201201 11 41 0.0 0.0 0.00 0.81 0.30 96 1009.7
20260505200707 11 41 0.0 0.0 0.00 0.81 0.30 96 1009.8
20260505200203 11 38 0.0 0.0 0.00 0.81 0.30 96 1009.7
20260505195702 11 38 0.0 0.0 0.00 0.81 0.30 97 1009.7
20260505195205 11 38 0.0 0.0 0.00 0.81 0.30 96 1009.7
20260505194702 11 38 0.0 0.0 0.00 0.81 0.30 96 1009.7
20260505194202 11 38 0.0 0.0 0.00 0.81 0.30 96 1009.6
20260505193700 11 38 0.0 0.0 0.00 0.81 0.30 96 1009.5
20260505192659 11 38 0.0 0.0 0.00 0.81 0.30 96 1009.4
20260505192158 11 38 0.0 0.0 0.00 0.81 0.30 96 1009.4
20260505191148 11 38 0.0 0.0 0.00 0.81 0.30 96 1009.2
20260505190642 11 38 0.0 0.0 0.00 0.81 0.30 96 1009.3
20260505190140 11 38 0.0 0.0 0.00 0.81 0.30 96 1009.3
20260505185638 11 38 0.0 0.0 0.00 0.81 0.30 96 1009.3
20260505185136 11 38 0.0 0.0 0.00 0.81 0.30 96 1009.3
20260505184637 11 38 0.0 0.0 0.00 0.81 0.30 96 1009.4
20260505184134 11 38 0.0 0.0 0.00 0.81 0.30 96 1009.2
20260505183634 11 38 0.0 0.0 0.00 0.81 0.30 96 1009.2
20260505183130 11 38 0.0 0.0 0.00 0.81 0.30 95 1009.3
20260505182631 11 38 0.0 0.0 0.00 0.81 0.30 95 1009.2
20260505182130 11 38 0.0 0.0 0.00 0.81 0.30 95 1009.3
20260505181630 11 38 0.0 0.0 0.00 0.84 0.30 95 1009.3
20260505180630 11 39 0.0 0.0 0.00 0.84 0.30 95 1009.3
20260505180131 11 37 0.0 0.0 0.00 0.86 0.30 96 1009.4
20260505175631 11 34 0.0 0.0 0.00 0.86 0.30 96 1009.3
20260505175130 11 34 0.0 0.0 0.00 0.89 0.30 96 1009.2
20260505174126 11 35 0.0 0.0 0.03 0.89 0.30 96 1009.3
20260505173625 11 34 0.0 0.0 0.03 0.91 0.30 96 1009.3
20260505173124 11 34 0.0 0.0 0.03 0.91 0.30 96 1009.4
20260505172624 11 32 0.0 0.0 0.03 0.94 0.30 96 1009.3
20260505172124 11 32 0.0 0.0 0.03 0.99 0.30 97 1009.3
20260505171624 11 33 0.0 0.0 0.03 0.99 0.30 97 1009.4
20260505171124 11 32 0.0 0.0 0.03 1.04 0.30 97 1009.3
20260505170623 11 32 0.0 0.0 0.03 1.09 0.30 97 1009.4
20260505170124 11 31 0.0 0.0 0.03 1.14 0.30 97 1009.4
20260505165122 11 31 0.0 0.0 0.03 1.17 0.30 97 1009.4
20260505164622 11 32 0.0 0.0 0.03 1.17 0.30 97 1009.4
20260505164122 11 28 0.0 0.0 0.00 1.17 0.28 97 1009.4
20260505163620 11 28 0.0 8.0 0.00 1.17 0.28 97 1009.4
20260505163120 11 33 1.6 12.9 0.00 1.17 0.28 97 1009.4
20260505162620 11 13 0.0 12.9 0.00 1.17 0.28 98 1009.5
20260505162120 11 29 0.0 0.0 0.00 1.17 0.28 98 1009.5
20260505161120 11 19 1.6 12.9 0.00 1.17 0.28 98 1009.5
20260505160620 11 15 0.0 12.9 0.00 1.17 0.28 98 1009.6
20260505160120 11 5 0.0 8.0 0.00 1.17 0.28 98 1009.6
20260505153116 11 39 0.0 6.4 0.00 1.17 0.28 97 1009.8
20260505152616 11 42 0.0 6.4 0.00 1.17 0.28 96 1009.7
20260505152115 11 43 0.0 8.0 0.00 1.17 0.28 96 1009.9
20260505151616 11 44 0.0 8.0 0.00 1.17 0.28 96 1010.0
20260505151116 11 49 0.0 6.4 0.00 1.17 0.28 96 1009.9
20260505150615 11 51 0.0 6.4 0.00 1.17 0.28 96 1009.9
20260505150115 11 54 0.0 9.7 0.00 1.17 0.28 96 1010.0
20260505140607 11 5 0.0 9.7 0.00 1.17 0.28 97 1010.2
20260505140108 11 44 0.0 0.0 0.00 1.17 0.28 98 1010.3
20260505130103 11 39 0.0 11.3 0.00 1.17 0.28 98 1010.6
20260505124602 11 82 0.0 6.4 0.00 1.17 0.28 98 1010.6
20260505124102 11 81 0.0 9.7 0.00 1.17 0.28 98 1010.6
20260505123602 11 78 0.0 9.7 0.00 1.17 0.28 98 1010.6
20260505123103 11 89 0.0 14.5 0.03 1.17 0.28 98 1010.9
20260505122601 11 85 0.0 14.5 0.03 1.17 0.28 98 1010.7
20260505122059 11 336 0.0 11.3 0.03 1.17 0.28 98 1010.6
20260505121558 11 78 0.0 11.3 0.03 1.17 0.28 98 1010.8
20260505120557 11 78 1.6 11.3 0.03 1.17 0.28 99 1010.7
20260505120056 11 5 0.0 9.7 0.05 1.17 0.28 99 1010.6
20260505115555 11 5 0.0 8.0 0.05 1.17 0.28 99 1010.5
20260505114555 10 16 0.0 14.5 0.05 1.17 0.28 99 1010.7
20260505114053 11 39 0.0 4.8 0.05 1.17 0.28 99 1010.7
20260505113552 11 29 0.0 8.0 0.05 1.17 0.28 99 1010.8
20260505113052 10 26 0.0 8.0 0.03 1.14 0.25 99 1010.8
20260505112555 10 40 0.0 4.8 0.03 1.14 0.25 99 1010.9
20260505111548 10 90 0.0 9.7 0.03 1.14 0.25 99 1010.8
20260505111049 10 355 0.0 4.8 0.03 1.14 0.25 99 1010.9
20260505110549 10 351 0.0 4.8 0.03 1.14 0.25 99 1010.9
20260505101545 10 5 0.0 6.4 0.00 1.12 0.23 98 1011.0
20260505100544 10 11 1.6 11.3 0.00 1.12 0.23 98 1011.0
20260505095541 10 20 0.0 12.9 0.00 1.12 0.23 98 1011.0
20260505095041 10 23 0.0 12.9 0.00 1.12 0.23 98 1010.9
20260505094541 10 71 0.0 12.9 0.00 1.12 0.23 98 1010.9
20260505094039 10 0 0.0 12.9 0.00 1.12 0.23 99 1011.0
20260505093539 10 60 0.0 9.7 0.00 1.12 0.23 98 1011.1
20260505092539 10 39 0.0 6.4 0.00 1.12 0.23 99 1011.3
20260505092039 10 16 0.0 9.7 0.00 1.12 0.23 99 1011.1
20260505091539 10 0 0.0 9.7 0.00 1.12 0.23 99 1011.1
20260505091041 10 25 0.0 11.3 0.00 1.12 0.23 99 1011.0
20260505090539 10 18 1.6 11.3 0.00 1.12 0.23 99 1011.0
20260505090037 10 0 0.0 9.7 0.00 1.12 0.23 99 1010.9
20260505085033 10 18 0.0 4.8 0.00 1.12 0.23 99 1011.2
20260505084533 10 55 0.0 0.0 0.00 1.12 0.23 99 1011.2
20260505084031 10 57 1.6 12.9 0.00 1.12 0.23 100 1011.2
20260505083531 10 22 0.0 12.9 0.00 1.12 0.23 99 1011.1
20260505082530 10 38 0.0 6.4 0.00 1.12 0.23 100 1011.2
20260505081530 10 16 0.0 9.7 0.00 1.12 0.23 100 1011.0
20260505081031 10 11 0.0 9.7 0.00 1.12 0.23 100 1011.2
20260505080529 10 20 1.6 9.7 0.00 1.12 0.23 100 1011.1
20260505080030 10 22 1.6 9.7 0.00 1.12 0.23 100 1011.1
20260505075530 10 0 0.0 12.9 0.00 1.12 0.23 100 1011.1
20260505074530 10 13 0.0 0.0 0.00 1.12 0.23 100 1011.1
20260505074030 10 11 0.0 11.3 0.00 1.12 0.23 100 1011.2
20260505073030 10 9 0.0 11.3 0.00 1.12 0.23 100 1011.1
20260505072530 10 16 1.6 12.9 0.00 1.12 0.23 100 1011.3
20260505072030 10 26 3.2 16.1 0.00 1.12 0.23 100 1011.3
20260505071533 10 15 1.6 16.1 0.00 1.12 0.23 100 1011.2
20260505071031 10 5 0.0 4.8 0.00 1.12 0.23 100 1011.2
20260505070529 10 24 0.0 12.9 0.00 1.12 0.23 100 1011.1
20260505070031 10 23 0.0 12.9 0.00 1.12 0.23 100 1011.2
20260505065030 10 18 0.0 0.0 0.00 1.12 0.23 100 1011.3
20260505064031 10 16 0.0 11.3 0.00 1.12 0.23 100 1011.3
20260505063530 10 15 0.0 9.7 0.00 1.12 0.23 100 1011.3
20260505063031 10 11 0.0 9.7 0.00 1.12 0.23 100 1011.3
20260505062531 10 19 0.0 0.0 0.00 1.12 0.23 100 1011.2
20260505062031 10 17 0.0 0.0 0.00 1.12 0.23 100 1011.4
20260505061534 11 13 0.0 0.0 0.00 1.12 0.23 100 1011.3
20260505061031 11 13 0.0 4.8 0.00 1.12 0.23 100 1011.3
20260505060528 11 13 0.0 4.8 0.00 1.12 0.23 99 1011.3
20260505060023 11 11 0.0 0.0 0.00 1.12 0.23 99 1011.4
20260505055521 11 11 0.0 0.0 0.00 1.12 0.23 99 1011.4
20260505055021 11 11 0.0 0.0 0.00 1.12 0.23 100 1011.3
20260505054519 11 14 0.0 0.0 0.00 1.12 0.23 99 1011.3
20260505054020 11 14 0.0 0.0 0.00 1.12 0.23 99 1011.4
20260505053519 11 17 0.0 11.3 0.00 1.12 0.23 99 1011.2
20260505053017 11 17 0.0 11.3 0.00 1.12 0.23 99 1011.1
20260505052517 11 24 0.0 8.0 0.00 1.12 0.23 99 1011.2
20260505052017 11 22 0.0 12.9 0.00 1.12 0.23 99 1011.1
20260505051519 11 26 0.0 12.9 0.00 1.12 0.23 99 1010.9
20260505051017 11 19 0.0 11.3 0.00 1.12 0.23 99 1011.1
20260505041509 11 20 0.0 0.0 0.00 1.12 0.23 99 1011.2
20260505041005 11 20 0.0 0.0 0.00 1.12 0.23 99 1011.3
20260505040020 11 19 0.0 0.0 0.00 1.12 0.23 99 1011.2
20260505035002 11 19 0.0 0.0 0.00 1.12 0.23 99 1011.1
20260505034509 11 19 0.0 0.0 0.00 1.12 0.23 99 1011.1
20260505034001 11 19 0.0 0.0 0.00 1.12 0.23 99 1011.1
20260505033501 12 18 0.0 0.0 0.00 1.12 0.23 99 1011.2
20260505033001 11 18 0.0 0.0 0.00 1.12 0.23 99 1011.2
20260505032501 12 17 0.0 0.0 0.00 1.12 0.23 99 1011.2
20260505032001 12 17 0.0 0.0 0.00 1.12 0.23 99 1011.1
20260505030459 12 5 0.0 0.0 0.00 1.12 0.23 99 1011.2
20260505025957 12 5 0.0 6.4 0.00 1.12 0.23 99 1011.1
20260505025456 12 5 0.0 8.0 0.00 1.12 0.23 99 1011.0
20260505024954 12 19 0.0 8.0 0.00 1.12 0.23 99 1011.1
20260505024455 12 18 0.0 11.3 0.00 1.12 0.23 99 1011.2
20260505023453 12 15 0.0 4.8 0.00 1.12 0.23 99 1011.3
20260505022953 12 14 0.0 9.7 0.00 1.12 0.23 99 1011.2
20260505022451 12 20 0.0 9.7 0.00 1.12 0.23 99 1011.2
20260505021948 12 15 0.0 11.3 0.00 1.12 0.23 99 1011.3
20260505020947 12 18 1.6 16.1 0.00 1.12 0.23 99 1011.3
20260505020447 12 340 1.6 14.5 0.00 1.12 0.23 99 1011.3
20260505015444 12 349 0.0 8.0 0.00 1.12 0.23 99 1011.3
20260505014945 12 15 0.0 8.0 0.00 1.12 0.23 99 1011.4
20260505014447 12 22 0.0 16.1 0.00 1.12 0.23 99 1011.3
20260505013943 12 21 1.6 16.1 0.00 1.12 0.23 99 1011.3
20260505013445 12 26 1.6 12.9 0.00 1.12 0.23 99 1011.2
20260505012944 12 16 0.0 12.9 0.00 1.12 0.23 99 1011.1
20260505012443 12 19 1.6 14.5 0.00 1.12 0.23 99 1011.3
20260505011940 12 22 1.6 14.5 0.00 1.12 0.23 99 1011.3
20260505011439 12 16 0.0 11.3 0.00 1.12 0.23 99 1011.3
20260505010939 13 15 0.0 8.0 0.00 1.12 0.23 99 1011.3
20260505010438 13 17 0.0 8.0 0.00 1.12 0.23 99 1011.6
20260505005939 13 13 0.0 11.3 0.00 1.12 0.23 99 1011.6
20260505005436 13 15 0.0 11.3 0.00 1.12 0.23 99 1011.6
20260505004936 13 22 0.0 12.9 0.00 1.12 0.23 99 1011.5
20260505004436 13 20 0.0 12.9 0.00 1.12 0.23 99 1011.6
20260505003936 13 19 0.0 14.5 0.00 1.12 0.23 99 1011.6
20260505002934 13 16 0.0 6.4 0.00 1.12 0.23 99 1011.6
20260505002435 13 15 1.6 16.1 0.00 1.12 0.23 99 1011.6
20260505001934 13 15 1.6 16.1 0.00 1.12 0.23 99 1011.7
20260505000933 13 30 0.0 0.0 0.00 1.12 0.23 99 1011.8
20260505000432 13 30 0.0 0.0 0.00 1.12 0.23 99 1011.9
20260504235431 13 30 0.0 0.0 0.03 1.12 0.23 99 1011.8
20260504234930 13 31 0.0 0.0 0.05 1.12 0.23 99 1011.9
20260504234430 13 30 0.0 0.0 0.05 1.12 0.23 99 1011.9
20260504233929 13 30 0.0 0.0 0.08 1.12 0.23 99 1011.9
20260504233431 13 30 0.0 0.0 0.08 1.12 0.23 99 1011.9
20260504232931 13 30 0.0 0.0 0.10 1.12 0.23 99 1011.9
20260504232430 13 30 0.0 0.0 0.13 1.12 0.23 99 1012.0
20260504231931 13 30 0.0 0.0 0.15 1.12 0.23 99 1011.9
20260504230930 13 31 0.0 0.0 0.20 1.12 0.23 99 1012.2
20260504230430 13 31 0.0 0.0 0.23 1.12 0.23 99 1012.1
20260504225930 13 31 0.0 0.0 0.23 1.09 0.23 99 1012.1
20260504225433 14 31 0.0 0.0 0.28 1.09 0.23 99 1012.1
20260504224930 13 31 0.0 0.0 0.30 1.09 0.20 99 1012.2